Charleston, SC

8:26 PM EDT on October 23, 2017 (GMT -0400)
Charleston Air Force Base-International

Weather History for KCHS - July, 2013

Change the Weather History Date:

Friday, July 12, 2013

  Actual Average Record
Temperature  
Mean Temperature 78 °F 82 °F  
Max Temperature 81 °F 91 °F 100 °F (1986)
Min Temperature 74 °F 73 °F 62 °F (1963)
Degree Days  
Heating Degree Days 0 0  
Month to date heating degree days 0 0  
Since 1 June heating degree days 0 1  
Since 1 July heating degree days 0 0  
Cooling Degree Days 13 17  
Month to date cooling degree days 197 201  
Year to date cooling degree days 1008 984  
Since 1 June cooling degree days 661 622  
Growing Degree Days 27 (Base 50)    
Moisture  
Dew Point 73 °F    
Average Humidity 87    
Maximum Humidity 94    
Minimum Humidity 79    
Precipitation  
Precipitation 0.63 in 0.22 in 2.92 in (1959)
Month to date precipitation 2.55 2.52  
Year to date precipitation 39.31 24.48  
Sea Level Pressure  
Sea Level Pressure 29.93 in    
Wind  
Wind Speed 3 mph (SE)    
Max Wind Speed 13 mph    
Max Gust Speed 17 mph    
Visibility 10 miles    
Events Rain , Thunderstorm    
T = Trace of Precipitation, MM = Missing Value Source: NWS Daily Summary

Daily Weather History Graph

Daily Weather History Graph

Search for Another Location

Airport or City:

Trip Planner

Search our weather history database for the weather conditions in past years. The results will help you decide how hot, cold, wet, or windy it might be!

Date:

Astronomy

Jul. 12, 2013 Rise Set
Actual Time 6:21 AM EDT 8:30 PM EDT
Civil Twilight 5:52 AM EDT 8:58 PM EDT
Nautical Twilight 5:18 AM EDT 9:32 PM EDT
Astronomical Twilight 4:41 AM EDT 10:09 PM EDT
Moon 10:20 AM EDT (7/12) 10:57 PM EDT (7/12)
Length of Visible Light 15h 05m
Length of Day
14h 09m
Waxing Crescent, 17% of the Moon is Illuminated
Jul 12
Waxing Crescent
Jul 15
First Quarter
Jul 22
Full
Jul 29
Last Quarter
Aug 6
New

Hourly Weather History & Observations

Time (EDT) Temp. Heat Index Dew Point Humidity Pressure Visibility Wind Dir Wind Speed Gust Speed Precip Events Conditions
12:20 AM 80.6 °F 85.4 °F 73.4 °F 79% 29.95 in 10.0 mi SW 5.8 mph - N/A   Mostly Cloudy
12:56 AM 81.0 °F 85.8 °F 73.0 °F 77% 29.94 in 10.0 mi WSW 5.8 mph - N/A   Mostly Cloudy
1:35 AM 78.8 °F - 71.6 °F 78% 29.94 in 10.0 mi NW 11.5 mph - N/A Thunderstorm Thunderstorm
1:47 AM 75.2 °F - 71.6 °F 89% 29.94 in 2.0 mi NNW 10.4 mph - 0.20 in Rain , Thunderstorm Heavy Thunderstorms and Rain
1:56 AM 73.9 °F - 71.1 °F 91% 29.94 in 7.0 mi NNW 5.8 mph - 0.41 in Rain , Thunderstorm Light Thunderstorms and Rain
2:10 AM 73.4 °F - 71.6 °F 94% 29.93 in 10.0 mi NNW 6.9 mph - 0.00 in   Scattered Clouds
2:56 AM 73.9 °F - 71.1 °F 91% 29.91 in 10.0 mi NE 3.5 mph - 0.00 in   Overcast
3:56 AM 73.9 °F - 71.1 °F 91% 29.90 in 10.0 mi Calm Calm - N/A   Overcast
4:56 AM 75.0 °F - 71.1 °F 87% 29.89 in 10.0 mi Calm Calm - N/A   Overcast
5:56 AM 75.0 °F - 71.1 °F 87% 29.91 in 10.0 mi NW 3.5 mph - N/A   Overcast
6:56 AM 75.0 °F - 71.1 °F 87% 29.91 in 10.0 mi Calm Calm - 0.00 in Rain Light Rain
7:56 AM 75.0 °F - 72.0 °F 90% 29.91 in 10.0 mi SSW 3.5 mph - 0.00 in   Mostly Cloudy
8:56 AM 75.9 °F - 72.0 °F 87% 29.92 in 10.0 mi South 3.5 mph - 0.01 in Rain Light Rain
9:56 AM 75.9 °F - 73.0 °F 91% 29.94 in 5.0 mi Calm Calm - 0.11 in Rain Rain
10:56 AM 78.1 °F - 73.0 °F 84% 29.94 in 10.0 mi NNE 3.5 mph - 0.02 in   Mostly Cloudy
11:56 AM 79.0 °F - 73.0 °F 82% 29.95 in 10.0 mi SW 3.5 mph - 0.00 in Rain Light Rain
12:47 PM 78.8 °F - 71.6 °F 78% 29.94 in 10.0 mi Calm Calm - 0.00 in   Mostly Cloudy
12:56 PM 79.0 °F - 73.0 °F 82% 29.94 in 10.0 mi Calm Calm - 0.00 in   Mostly Cloudy
1:56 PM 81.0 °F 86.2 °F 73.9 °F 79% 29.94 in 10.0 mi Variable 3.5 mph - 0.01 in   Mostly Cloudy
2:56 PM 79.0 °F - 73.9 °F 84% 29.93 in 10.0 mi ESE 5.8 mph - N/A   Mostly Cloudy
3:56 PM 78.1 °F - 73.0 °F 84% 29.93 in 10.0 mi SSE 4.6 mph - 0.00 in Rain Light Rain
4:56 PM 78.1 °F - 73.0 °F 84% 29.92 in 10.0 mi Calm Calm - 0.07 in Rain Light Rain
5:56 PM 79.0 °F - 73.9 °F 84% 29.92 in 10.0 mi SSE 3.5 mph - 0.00 in   Mostly Cloudy
6:56 PM 79.0 °F - 73.0 °F 82% 29.92 in 10.0 mi SSE 3.5 mph - N/A   Mostly Cloudy
7:56 PM 79.0 °F - 73.9 °F 84% 29.94 in 10.0 mi ESE 4.6 mph - N/A   Mostly Cloudy
8:56 PM 78.1 °F - 73.0 °F 84% 29.96 in 10.0 mi East 3.5 mph - N/A   Mostly Cloudy
9:56 PM 77.0 °F - 73.0 °F 88% 29.96 in 10.0 mi ESE 3.5 mph - N/A   Mostly Cloudy
10:56 PM 77.0 °F - 73.9 °F 90% 29.97 in 10.0 mi ENE 3.5 mph - N/A   Mostly Cloudy
11:56 PM 75.9 °F - 73.0 °F 91% 29.96 in 10.0 mi SSE 4.6 mph - N/A   Mostly Cloudy